DW9848 Weather Reports


time (UTC)temp
C
wind
direction
speed
KPH
gust
KPH
rain 1hr
cm
rain 24hr
cm
rain mn
cm
humidity
%
barometer
mb
20260506044544 12 74 0.0 4.8 0.00 0.00 0.00 76 997.1
20260506043043 12 209 0.0 6.4 0.00 0.00 0.00 76 997.3
20260506041555 12 74 1.6 9.7 0.00 0.00 0.00 76 997.5
20260506040038 12 104 0.0 1.6 0.00 0.00 0.00 76 997.6
20260506034536 12 104 0.0 12.9 0.00 0.00 0.00 76 997.6
20260506033034 12 50 0.0 3.2 0.00 0.00 0.00 76 997.6
20260506031534 12 50 0.0 4.8 0.00 0.00 0.00 76 997.7
20260506030035 12 31 1.6 6.4 0.00 0.00 0.00 76 997.7
20260506024532 12 48 1.6 4.8 0.00 0.00 0.00 76 998.1
20260506023026 12 61 0.0 3.2 0.00 0.00 0.00 76 998.6
20260506021526 12 37 0.0 3.2 0.00 0.00 0.00 76 998.8
20260506020026 12 37 0.0 0.0 0.00 0.00 0.00 76 998.7
20260506014532 12 37 0.0 3.2 0.00 0.00 0.00 76 998.8
20260506013028 12 37 0.0 1.6 0.00 0.00 0.00 76 998.8
20260506011523 12 37 0.0 0.0 0.00 0.00 0.00 76 998.8
20260506010025 12 30 0.0 0.0 0.00 0.00 0.00 76 999.2
20260506004528 12 30 0.0 0.0 0.00 0.00 0.00 76 999.3
20260506003016 12 30 0.0 3.2 0.00 0.00 0.00 76 999.6
20260506001516 12 30 0.0 3.2 0.00 0.00 0.00 76 999.7
20260506000019 12 30 0.0 4.8 0.00 0.00 0.00 76 999.6
20260505234517 12 31 0.0 3.2 0.00 0.00 0.00 76 999.8
20260505233011 12 27 0.0 4.8 0.00 0.00 0.00 76 1000.1
20260505231510 12 34 0.0 3.2 0.00 0.00 0.00 76 1000.3
20260505230014 12 34 0.0 4.8 0.00 0.00 0.00 76 1000.1
20260505224507 12 34 0.0 3.2 0.00 0.00 0.00 76 1000.4